SAVC Airport Information

Runway Information
Runway 7 Length 9219 ft width 164 ft
Elevation 189 ft Threshold 0 ft Heading 79
Runway 25 Length 9219 ft Width 164 ft
Elevation 105 ft Threshold 0 ft Heading 259
Airport Frequencies
Type ARR Name COMODORO C Frequency 124.3 MHZ
Type TWR Name COMODORO T Frequency 119.9 MHZ
Airport Navaids
Type NDB Name Comodoro Rivadavia Frequency 280 KHZ
Type VOR-DME Name Comodoro Rivadavia Frequency 117500 KHZ
Type NDB Name Comodoro Rivadavia Frequency 260 KHZ
Airport Weather Information & NOTAM
ADDS - METARS form results

(0134 UTC 19 August 2018)
 
METAR text: SAVC 190100Z 29010KT CAVOK 04/M11 Q1029
Conditions at: SAVC (COMODORO RIVADAV, AR) observed 0100 UTC 19 August 2018
Temperature: 4.0°C (39°F)
Dewpoint: -11.0°C (12°F) [RH = 32%]
Pressure (altimeter): 30.38 inches Hg (1029.0 mb)
Winds: from the WNW (290 degrees) at 12 MPH (10 knots; 5.2 m/s)
Visibility: 6 or more miles (10+ km)
Ceiling: ceiling and visibility are OK
Clouds: unknown
Weather: no significant weather observed at this time